Simultaneous Nadir Overpasses (SNOs) Predictions

Prediction of SNOs between METOP-A and TERRA Satellite Orbit:

Table of predicted SNOs for the next 14.0 days since TLE Epoch: 8/14/2021
Index Date (METOP-A) Time (METOP-A) Lat,Lon (METOP-A) SZA (METOP-A ) Date (TERRA) Time (TERRA) Lat,Lon (TERRA) SZA (TERRA ) Distance(km) Time Diff (sec)
1 08/16/2021 19:59:33 -81.28, 105.36 109.66 08/16/2021 20:00:39 -81.30, 105.50 109.60 2.90 66
2 08/16/2021 20:50:14 81.28, -87.31 70.36 08/16/2021 20:50:06 81.28, -87.13 70.37 3.02 8
3 08/19/2021 15:33:54 -81.29, 171.64 108.75 08/19/2021 15:34:52 -81.28, 171.64 108.73 0.59 58
4 08/19/2021 16:24:34 81.27, -20.68 71.30 08/19/2021 16:24:18 81.28, -20.65 71.30 1.52 16
5 08/22/2021 11:08:13 -81.27,-121.71 107.78 08/22/2021 11:09:03 -81.28,-121.89 107.77 3.23 50
6 08/22/2021 11:58:54 81.28, 45.55 72.23 08/22/2021 11:58:30 81.26, 45.42 72.19 2.64 24
7 08/25/2021 06:42:34 -81.28, -55.45 106.82 08/25/2021 06:43:15 -81.28, -55.45 106.80 0.65 41
8 08/25/2021 07:33:14 81.27, 112.15 73.22 08/25/2021 07:32:41 81.28, 112.21 73.22 2.19 33



Historial Predications of SNOs between METOP-A and TERRA
